FENGYUN 1C DEB, 30504

Orbit data source: Space-Track

FENGYUN 1C DEB, 30504 is space debris in SSO originally from a launch on Mon, 10 May 1999 UTC launched from the Taiyaun Space Center, China (TSC). Fengyun 1C debris stems from the Chinese weather satellite Fengyun-1C, which was intentionally destroyed by a Chinese anti-satellite missile in 2007. This event dramatically increased the amount of space debris, with thousands of trackable fragments posing hazards to satellites and human spaceflight. The Fengyun 1C debris cloud has become a focal point in discussions about space sustainability and the need for international regulations to prevent the creation of new debris.

Loading next visibility...
Identifier
30504, 1999-025AHS
Orbit
SSO
Country
Flag of CNCN / PRC
Related business
Manufacturer
Unknown
Mission
Spacecraft
Bus & Motor
Unknown
Mass
Unknown
Launch date (UTC)
1999-05-10 (27 years ago)
Launch vehicle
Unknown
Launch site
Taiyaun Space Center, China (TSC)
Object type
Payload
Rocket body
Debris
Shape & HBR
Unknown shape, 0.1 m
Radar Cross Section
Medium (>0.1 m² and <1 m²)

Expand to show TLE details & history
Last TLE update: 1 week ago

TLE from 1 week ago
0 FENGYUN 1C DEB
1 30504U 99025AHS 26154.36901572  .00001427  00000-0  63825-3 0  9999
2 30504  99.0004 208.9530 0112967  84.4673 276.9375 14.20883569998451
Epoch: 2026-06-03T08:51Z
TLE epoch observation values (Epoch: 2026-06-03T08:51:22.958Z)
Latitude
-0.00004°
Longitude
-175.72128°
Altitude
816.353 km
Speed
7.45 km/s
True Right ascension
13h 55m 48s
True Declination
0° 00' 00"
Sunlit
Object was in full shadow at epoch
Visualization orbit readout
Latitude
Unknown
Longitude
Unknown
Altitude
Unknown
Speed
Unknown
Apparent Right ascension
Unknown
Apparent Declination
Unknown
Sunlit
N/A
Visualization observer readout
Local Sidereal Time
01:57:10
Azimuth
Unknown
Elevation
Unknown
Doppler factor
Unknown
Orbital elements
Apogee altitude
900.847 km
Perigee altitude
738.227 km
Semi-major axis
7,197.674 km
Eccentricity
0.0113
Inclination
99.0004°
RAAN
208.953°
Arg. of periapsis
84.4673°
True anomaly
275.65038°
Mean anomaly
276.9375°
Eccentric anomaly
276.29415°
Mean motion
3.55431 °/min
Orbital period
101.29 mins
BSTAR
0.00063825
Loading maneuver chart data...
Computing Atmospheric mass density...
Loading historical data...
Loading historical data...
Loading historical data...
Loading historical data...
Loading historical data...
Loading historical data...
Loading historical data...

Documentation

Showing up to 5 results
|